Home > Weather > Varese > Past weeks

Flag for Italy Past Weather in Varese, Italy — Yesterday and Last 2 Weeks

Now
47 °F

Cool.


Feels Like: 47 °F
Forecast: 48 / 73 °F
Wind: 1 mph from Southwest

Location: Stabio

Current Time: May 25, 2016 at 3:23:18 AM

Latest Report: May 25, 2016 at 2:00 AM


Visibility: N/A

Pressure: 29.91 "Hg

Humidity: 91%

Dew Point: 45 °F

Location of VareseLocation

Past Weather in Varese — Graph

°F

Varese Temperature Yesterday

Maximum temperature yesterday: 74 °F (at 5:00 PM)
Minimum temperature yesterday: 44 °F (at 5:00 AM)
Average temperature yesterday: 61 °F

High & Low Weather Summary for the Past Weeks

 TemperatureHumidityPressure
High76 °F (May 21, 3:00 PM)100% (May 13, 3:00 AM)30.15 "Hg (May 13, 3:00 AM)
Low40 °F (May 17, 6:00 AM)19% (May 15, 3:00 PM)29.47 "Hg (May 13, 5:00 AM)
Average57 °F73%29.85 "Hg
* Reported May 10 2:00 AM — May 25 2:00 AM, Varese, Weather by CustomWeather, © 2016

Note: Actual official high and low records may vary slightly from our data, if they occured in-between our weather recording intervals... More about our weather records

Advertising

Varese Weather History for the Previous 24 Hours

Scroll right to see more
 ConditionsComfort  
Time TempWeatherWind HumidityBarometerVisibility
2:00 AM
Wed, May 25
47 °FCool.1 mph91%29.91 "HgN/A
1:00 AM49 °FCool.2 mph84%29.90 "HgN/A
12:00 AM51 °FCool.1 mph77%29.88 "HgN/A
11:00 PM
Tue, May 24
53 °FCool.1 mph71%29.87 "HgN/A
10:00 PM56 °FCool.1 mph65%29.84 "HgN/A
9:00 PM61 °FRefreshingly cool.2 mph59%29.80 "HgN/A
8:00 PM69 °FMild.8 mph37%29.76 "HgN/A
7:00 PM71 °FMild.8 mph33%29.73 "HgN/A
6:00 PM73 °FMild.6 mph33%29.72 "HgN/A
5:00 PM74 °FMild.5 mph38%29.72 "HgN/A
4:00 PM74 °FMild.5 mph33%29.73 "HgN/A
3:00 PM74 °FMild.3 mph31%29.73 "HgN/A
2:00 PM73 °FMild.2 mph35%29.75 "HgN/A
1:00 PM72 °FMild.3 mph29%29.75 "HgN/A
12:00 PM70 °FMild.3 mph32%29.76 "HgN/A
11:00 AM69 °FMild.2 mph36%29.76 "HgN/A
10:00 AM65 °FMild.2 mph33%29.77 "HgN/A
9:00 AM62 °FRefreshingly cool.3 mph52%29.78 "HgN/A
8:00 AM57 °FCool.3 mph63%29.79 "HgN/A
7:00 AM50 °FCool.3 mph74%29.82 "HgN/A
6:00 AM44 °FQuite cool.5 mph80%29.83 "HgN/A
5:00 AM44 °FQuite cool.3 mph91%29.83 "HgN/A
4:00 AM45 °FCool.2 mph87%29.82 "HgN/A
3:00 AM47 °FCool.2 mph87%29.82 "HgN/A
Weather by CustomWeather, © 2016

See weather overviewHow to use our weather pages